Tracking 21045 objects as of 3-Aug-2020
HD Live streaming from Space Station
objects crossing your sky now

COSMOS 397 DEB

Track COSMOS 397 DEB now!
10-day predictions


NORAD ID: 5763
Int'l Code: 1971-015CF
Perigee: 847.4 km
Apogee: 1,437.6 km
Inclination: 66.9 °
Period: 108.0 minutes
Semi major axis: 7513 km
RCS: 0.0229 m2 (small)
Launch date: February 25, 1971
Source: Commonwealth of Independent States (former USSR) (CIS)
Launch site: TYURATAM MISSILE AND SPACE COMPLEX (TTMTR)

Note: This is SATELLITE DEBRIS
aabbcc
Your satellite tracking list
Your tracking list is empty




NASA's NSSDC Master Catalog

Two Line Element Set (TLE):
1  5763U 71015CF  20215.82890542 +.00000724 +00000-0 +10467-2 0  9996
2  5763 066.9028 354.2888 0392750 219.7988 137.3645 13.33027985366377
Source of the keplerian elements: AFSPC